Weather History for Alexandria, Egypt

Change the Weather History Date:

Thursday, March 29, 2012

  Actual Average Record
Temperature  
Mean Temperature 58 °F -  
Max Temperature 68 °F 72 °F 86 °F (2004)
Min Temperature 48 °F 56 °F 48 °F (1998)
Degree Days  
Heating Degree Days 7    
Growing Degree Days 8 (Base 50)    
Moisture  
Dew Point 49 °F    
Average Humidity 72    
Maximum Humidity 100    
Minimum Humidity 49    
Precipitation  
Precipitation 0.16 in 0.01 in - ()
Sea Level Pressure  
Sea Level Pressure 30.03 in    
Wind  
Wind Speed 4 mph ()    
Max Wind Speed 13 mph    
Max Gust Speed -    
Visibility 6.0 miles    
Events Rain , Thunderstorm    
Averages and records for this station are not official NWS values.
T = Trace of Precipitation, MM = Missing Value Source: Averaged Metar Reports

Daily Weather History Graph

Daily Weather History Graph

Search for Another Location

Airport:

Trip Planner

Search our weather history database for the weather conditions in past years. The results will help you decide how hot, cold, wet, or windy it might be!

Date:

Astronomy

Mar. 29, 2012 Rise Set
Actual Time 5:52 AM EET 6:17 PM EET
Civil Twilight 5:28 AM EET 6:42 PM EET
Nautical Twilight 4:59 AM EET 7:10 PM EET
Astronomical Twilight 4:30 AM EET 7:39 PM EET
Moon 10:03 AM EET (3/29) No Moon Set
Length of Visible Light 13h 13m
Length of Day
12h 25m
Waxing Crescent, 37% of the Moon is Illuminated
Mar 29
Waxing Crescent
Mar 30
First Quarter
Apr 6
Full
Apr 13
Last Quarter
Apr 21
New

Hourly Weather History & Observations

Time (EET) Temp. Dew Point Humidity Pressure Visibility Wind Dir Wind Speed Gust Speed Precip Events Conditions
12:00 AM 53.6 °F 53.6 °F 100% 30.04 in - Calm Calm - N/A   Clear
1:00 AM 51.8 °F 50.0 °F 94% 30.01 in - South 1.2 mph - N/A   Clear
2:00 AM 50 °F 47 °F 87% 30.03 in 6 mi SW 2.3 mph - -  
2:00 AM 50.0 °F 48.2 °F 94% 30.01 in - SW 2.3 mph - N/A   Clear
3:00 AM 50.0 °F 48.2 °F 94% 30.01 in - Calm Calm - N/A   Clear
4:00 AM 48.2 °F 46.4 °F 93% 30.01 in - Calm Calm - N/A   Clear
5:00 AM 51.8 °F 48.2 °F 88% 30.01 in - Calm Calm - N/A   Clear
6:00 AM 51.8 °F 48.2 °F 88% 30.01 in 6.2 mi Calm Calm - N/A   Scattered Clouds
7:00 AM 53.6 °F 51.8 °F 94% 30.04 in 6.2 mi South 2.3 mph - N/A   Scattered Clouds
8:00 AM 60 °F 53 °F 72% 30.04 in 6 mi South 2.3 mph - -   Partly Cloudy
8:00 AM 60.8 °F 53.6 °F 77% 30.04 in 6.2 mi South 2.3 mph - N/A   Scattered Clouds
9:00 AM 64.4 °F 51.8 °F 64% 30.04 in 6.2 mi SW 5.8 mph - N/A   Partly Cloudy
11:00 AM 68.0 °F 48.2 °F 49% 30.04 in 6.2 mi West 11.5 mph - N/A   Scattered Clouds
12:00 PM 66.2 °F 48.2 °F 52% 30.04 in 6.2 mi West 12.7 mph - N/A   Scattered Clouds
1:00 PM 59.0 °F 51.8 °F 77% 30.04 in 3.7 mi NW 9.2 mph - N/A Rain , Thunderstorm Rain Showers
2:00 PM 64 °F 53 °F 59% 30.03 in 6 mi WNW 8.1 mph - -   Partly Cloudy
2:00 PM 64.4 °F 53.6 °F 68% 30.04 in 6.2 mi WNW 8.1 mph - N/A   Scattered Clouds
3:00 PM 64.4 °F 51.8 °F 64% 30.01 in 6.2 mi NW 11.5 mph - N/A   Partly Cloudy
4:00 PM 64.4 °F 48.2 °F 56% 30.01 in 6.2 mi NNW 11.5 mph - N/A   Partly Cloudy
5:00 PM 62.6 °F 44.6 °F 52% 30.01 in - NNW 10.4 mph - N/A   Clear
6:00 PM 60.8 °F 44.6 °F 55% 30.01 in - NNW 9.2 mph - N/A   Clear
7:00 PM 59.0 °F 46.4 °F 63% 30.04 in 6.2 mi NNW 9.2 mph - N/A   Partly Cloudy
8:00 PM 59 °F 46 °F 52% 30.05 in 6 mi NW 5.8 mph - -  
8:00 PM 59.0 °F 46.4 °F 63% 30.04 in - NW 5.8 mph - N/A   Clear
9:00 PM 59.0 °F 44.6 °F 59% 30.06 in - NW 6.9 mph - N/A   Clear
10:00 PM 59.0 °F 44.6 °F 59% 30.06 in - NNW 5.8 mph - N/A   Clear
11:00 PM 57.2 °F 46.4 °F 67% 30.06 in - NNW 3.5 mph - N/A   Clear